Temp
8 9 9 9 9 9 8 8 8 8 8 8 8 8 8 8 8 8 8 9 9 9 9 9 9 10 10 10 10 10 10 10 10 9 9 9 9 9 9 9 9 9 8
8 8 8 9 8 8 8 8 8 8 8 8 8 7 7 7 8 8 8 9 9 9 9 9 9 10 10 10 10 10 10 10 9 10 9 9 10 9 9 9 9 9 8
8 8 8 8 8 8 8 8 9 8 8 7 8 7 7 7 8 8 8 8 9 9 9 9 9 9 9 10 10 9 9 9 10 10 9 9 9 9 9 9 9 9 9
8 8 8 8 7 7 8 8 8 8 8 7 7 8 7 7 7 8 8 8 8 9 9 9 9 9 9 9 9 9 9 9 10 9 9 9 9 9 9 9 9 9 9
7 7 7 7 7 7 7 7 8 8 8 7 7 7 7 7 7 7 8 8 8 8 9 9 9 9 9 9 9 9 9 9 9 9 9 9 9 9 9 9 9 9 9
6 6 6 7 7 7 7 7 7 7 7 7 7 7 7 7 7 7 7 8 8 8 8 9 9 9 9 9 9 9 9 9 9 9 9 9 9 9 9 9 9 9 9
7 6 5 6 6 6 6 6 6 7 6 7 7 7 7 7 7 7 7 7 7 8 8 8 8 8 9 9 9 9 9 9 9 9 9 9 9 9 9 9 8 8 8
6 5 6 5 6 6 6 6 6 6 6 6 6 6 6 7 7 6 6 7 7 7 8 8 8 8 8 9 9 9 9 9 9 9 9 9 9 8 8 8 8 8 8
5 5 6 5 5 5 6 6 6 6 6 6 6 6 6 6 6 6 6 6 6 7 7 7 7 7 8 8 8 8 8 8 9 9 8 8 8 8 8 8 8 8 8
4 5 4 4 5 4 5 5 5 6 6 6 6 5 5 6 6 6 6 6 6 6 6 7 7 7 7 8 8 8 8 8 8 8 8 8 8 8 8 8 8 8 8
4 4 4 4 3 3 4 5 4 5 5 5 5 5 5 5 5 6 6 6 6 6 6 6 6 6 7 7 7 7 7 8 7 7 8 8 8 8 8 8 8 8 8
4 4 3 4 5 3 3 4 3 4 4 5 5 5 5 4 5 5 6 6 6 5 5 5 6 6 6 6 6 7 7 7 7 7 7 7 7 7 7 7 7 7 8
4 4 4 4 4 4 4 3 3 2 3 3 4 4 4 4 4 4 5 5 6 5 5 5 5 5 5 6 6 6 6 6 6 7 7 7 7 6 6 7 7 7 7
3 3 4 4 4 3 3 3 3 3 3 3 3 3 3 3 3 4 4 4 4 5 4 4 5 5 5 5 5 5 6 6 6 6 6 6 6 6 6 6 6 7 7
3 3 3 3 3 3 3 3 3 3 2 2 3 4 4 3 4 3 3 3 3 3 4 5 4 4 4 5 4 5 5 5 6 6 6 6 6 6 6 6 6 6 6
3 3 3 3 3 3 3 2 2 3 3 3 2 2 2 1 2 3 1 3 3 3 3 4 4 4 4 4 4 5 5 5 5 5 6 6 6 6 6 6 6 6 6
2 2 2 2 2 3 2 2 3 2 3 2 2 2 2 0 1 1 2 2 3 3 4 5 4 4 4 4 4 4 5 5 5 5 5 6 6 6 6 6 6 6 6
2 1 2 1 2 2 2 2 1 1 1 0 1 1 1 0 1 1 1 1 2 2 2 3 4 4 4 4 4 4 4 5 5 5 5 5 5 6 6 6 6 6 6
1 1 2 1 2 2 1 1 2 1 1 1 0 0 -0 0 -0 0 1 1 1 1 2 2 2 3 3 3 4 4 4 4 4 5 5 5 5 5 5 6 6 6 6
1 0 0 1 1 2 1 1 2 1 0 0 0 0 -0 1 1 1 0 1 1 1 2 2 1 2 2 3 3 3 3 4 4 4 5 4 4 4 4 5 5 5 6
0 0 -0 0 1 1 1 1 1 1 1 0 1 0 0 -0 1 2 1 -1 1 0 1 1 2 2 2 2 2 3 3 4 3 3 5 4 4 4 4 4 5 5 5
-2 -1 -0 -0 0 0 0 1 1 1 1 1 1 2 1 1 1 -0 2 1 -1 0 1 1 0 0 1 2 3 3 3 3 3 3 3 4 4 4 4 4 4 5 5
-2 -2 -2 -2 -1 -1 0 1 1 1 1 1 1 1 1 1 1 0 0 -1 -1 -1 1 1 1 0 0 0 0 2 3 3 3 3 3 3 4 4 4 4 4 4 5
-3 -2 -1 -1 -2 -1 -0 -0 0 0 0 1 1 1 1 1 1 0 0 -1 -1 -1 -1 0 2 0 -0 0 1 0 2 2 3 3 3 3 3 3 4 4 3 4 4
-3 -3 -2 -2 -1 -1 -1 -1 -1 -0 -0 0 0 1 1 1 1 0 0 -1 -1 -1 -2 -2 -1 -1 1 -0 0 0 0 1 2 2 3 3 3 3 3 3 3 3 3
-4 -4 -3 -3 -2 -2 -2 -2 -2 -1 -1 -1 -1 -0 -0 -0 0 0 0 -1 -1 -1 -1 -2 -1 -1 -2 0 -0 -1 -1 -0 1 1 2 2 3 3 3 3 3 3 3
Height
3140 3141 3142 3143 3145 3146 3149 3150 3151 3153 3155 3156 3157 3159 3159 3160 3162 3162 3163 3163 3163 3163 3163 3164 3164 3163 3162 3162 3161 3160 3159 3158 3157 3156 3155 3154 3152 3151 3150 3148 3147 3147 3145
3138 3140 3141 3142 3144 3145 3149 3150 3150 3152 3155 3157 3158 3159 3160 3161 3162 3163 3164 3165 3164 3165 3165 3165 3165 3165 3164 3163 3163 3162 3161 3160 3159 3158 3157 3156 3155 3153 3151 3150 3149 3148 3147
3136 3137 3140 3141 3143 3144 3147 3149 3150 3152 3154 3156 3158 3159 3161 3162 3163 3163 3164 3165 3165 3166 3166 3166 3166 3166 3166 3165 3165 3164 3163 3162 3161 3160 3159 3158 3156 3154 3153 3152 3151 3150 3149
3133 3135 3138 3140 3142 3144 3145 3148 3150 3152 3154 3156 3158 3159 3161 3163 3164 3164 3165 3165 3166 3166 3167 3167 3167 3167 3167 3167 3167 3166 3165 3164 3163 3162 3160 3159 3158 3156 3155 3154 3154 3152 3151
3130 3133 3135 3138 3140 3143 3144 3146 3149 3151 3153 3155 3157 3158 3160 3161 3163 3165 3165 3166 3167 3168 3168 3168 3168 3168 3167 3167 3167 3167 3167 3166 3165 3163 3162 3161 3160 3158 3158 3156 3155 3155 3153
3127 3130 3132 3136 3138 3141 3144 3145 3146 3149 3151 3154 3156 3158 3159 3161 3162 3163 3165 3166 3167 3168 3168 3168 3168 3169 3169 3168 3168 3167 3167 3167 3166 3165 3164 3163 3161 3160 3159 3158 3158 3157 3155
3127 3127 3130 3133 3135 3138 3141 3143 3144 3146 3149 3152 3155 3156 3158 3160 3161 3163 3164 3165 3166 3167 3168 3168 3169 3169 3169 3169 3169 3168 3168 3168 3167 3166 3165 3164 3163 3162 3161 3160 3160 3158 3157
3125 3127 3127 3131 3132 3134 3136 3140 3142 3145 3147 3149 3152 3154 3156 3158 3159 3161 3163 3164 3165 3166 3167 3168 3169 3169 3169 3169 3169 3170 3169 3169 3168 3168 3167 3166 3165 3164 3164 3163 3162 3160 3159
3120 3123 3125 3128 3130 3133 3136 3138 3139 3141 3144 3146 3149 3151 3153 3156 3158 3159 3161 3163 3164 3166 3166 3167 3168 3169 3169 3169 3169 3169 3170 3170 3169 3169 3169 3168 3167 3166 3165 3164 3164 3163 3161
3114 3118 3121 3121 3127 3129 3133 3136 3138 3140 3143 3144 3146 3149 3151 3153 3155 3157 3159 3161 3162 3164 3166 3167 3167 3168 3168 3169 3170 3170 3170 3170 3170 3170 3170 3169 3168 3167 3167 3166 3166 3164 3163
3112 3113 3116 3118 3120 3126 3128 3129 3129 3136 3139 3142 3144 3146 3148 3150 3151 3154 3157 3158 3160 3161 3163 3165 3166 3167 3168 3168 3169 3170 3171 3171 3171 3171 3171 3171 3170 3169 3169 3168 3167 3166 3166
3110 3111 3112 3113 3117 3119 3123 3125 3127 3131 3133 3138 3140 3142 3144 3146 3148 3151 3153 3155 3157 3160 3161 3162 3164 3165 3166 3168 3169 3170 3171 3171 3172 3172 3172 3172 3171 3170 3170 3170 3169 3169 3168
3106 3108 3110 3112 3114 3117 3118 3121 3124 3126 3129 3132 3136 3140 3140 3144 3144 3147 3150 3152 3154 3156 3159 3161 3162 3164 3165 3166 3167 3169 3170 3171 3171 3172 3171 3172 3172 3171 3171 3171 3170 3170 3170
3101 3104 3107 3109 3111 3113 3116 3116 3120 3123 3125 3129 3134 3135 3137 3141 3142 3144 3146 3148 3150 3153 3157 3160 3161 3161 3163 3165 3167 3167 3168 3170 3171 3171 3171 3171 3171 3172 3172 3171 3171 3171 3171
3097 3099 3102 3105 3107 3110 3111 3113 3116 3117 3120 3123 3126 3126 3131 3136 3136 3138 3141 3145 3148 3152 3153 3157 3159 3160 3161 3162 3164 3165 3167 3168 3169 3169 3170 3170 3171 3171 3171 3171 3171 3172 3171
3091 3095 3097 3100 3102 3104 3107 3109 3111 3111 3113 3115 3121 3122 3122 3124 3126 3129 3135 3139 3143 3146 3149 3150 3155 3157 3159 3160 3160 3162 3164 3165 3166 3167 3168 3168 3169 3170 3170 3170 3170 3171 3171
3085 3089 3091 3095 3098 3101 3103 3106 3106 3106 3109 3112 3114 3117 3121 3121 3122 3126 3128 3136 3140 3142 3145 3148 3150 3152 3155 3157 3159 3159 3160 3162 3164 3165 3166 3167 3167 3168 3169 3169 3169 3169 3169
3078 3082 3086 3089 3093 3097 3100 3102 3101 3103 3103 3105 3109 3112 3117 3117 3119 3124 3128 3129 3131 3138 3140 3143 3145 3145 3148 3153 3155 3156 3157 3158 3160 3161 3163 3164 3165 3166 3167 3167 3168 3168 3168
3072 3076 3080 3084 3088 3090 3095 3094 3099 3098 3101 3104 3105 3106 3109 3110 3112 3117 3121 3124 3129 3132 3135 3136 3139 3142 3145 3148 3148 3151 3152 3154 3156 3157 3158 3160 3162 3163 3164 3165 3166 3166 3166
3066 3070 3074 3078 3082 3084 3089 3091 3094 3097 3100 3101 3101 3103 3107 3107 3108 3112 3116 3119 3119 3124 3127 3129 3132 3134 3138 3142 3144 3146 3148 3148 3150 3151 3153 3155 3157 3159 3160 3161 3163 3163 3164
3059 3063 3068 3071 3075 3079 3082 3086 3090 3092 3095 3097 3098 3100 3101 3102 3105 3109 3110 3111 3115 3116 3120 3123 3123 3127 3130 3134 3137 3139 3141 3142 3144 3145 3147 3150 3152 3153 3155 3157 3158 3160 3161
3053 3057 3061 3065 3068 3072 3076 3079 3083 3086 3089 3092 3093 3095 3097 3099 3099 3101 3103 3107 3110 3111 3112 3114 3117 3119 3122 3125 3128 3132 3133 3137 3136 3139 3141 3143 3145 3147 3149 3151 3153 3155 3156
3047 3051 3054 3058 3061 3066 3069 3073 3076 3079 3083 3085 3087 3090 3092 3093 3094 3095 3096 3100 3104 3107 3104 3108 3110 3111 3114 3116 3117 3121 3120 3124 3128 3131 3133 3136 3137 3140 3142 3144 3147 3149 3151
3042 3046 3049 3053 3056 3062 3063 3067 3070 3073 3076 3079 3080 3083 3086 3088 3088 3089 3091 3094 3096 3098 3099 3100 3102 3106 3106 3108 3109 3111 3113 3116 3118 3123 3124 3125 3130 3132 3134 3137 3140 3142 3144
3038 3041 3044 3047 3050 3053 3057 3060 3063 3067 3070 3072 3074 3076 3079 3080 3081 3083 3085 3087 3090 3092 3095 3095 3097 3098 3102 3102 3102 3102 3106 3108 3110 3113 3114 3117 3119 3122 3125 3126 3130 3133 3136
3033 3036 3039 3042 3045 3048 3052 3054 3056 3059 3062 3064 3067 3069 3072 3074 3075 3077 3079 3081 3083 3085 3088 3090 3090 3094 3096 3097 3097 3096 3099 3101 3101 3104 3106 3108 3110 3114 3116 3117 3119 3124 3127
Wind_Speed
16 16 16 16 15 13 15 15 14 15 16 14 14 11 10 7 6 5 5 7 7 8 9 10 11 12 13 13 13 13 12 11 12 13 13 14 14 15 15 15 14 13 13
12 18 18 18 17 14 15 15 15 18 16 16 14 11 8 8 7 6 4 4 5 5 6 7 9 10 12 13 13 14 15 13 13 12 12 13 14 15 16 16 14 14 13
12 18 20 20 19 16 15 15 16 20 17 16 14 12 10 7 6 6 5 3 3 4 4 5 6 8 10 11 11 12 14 13 12 12 12 13 14 15 16 16 15 15 14
16 16 21 21 20 19 17 17 17 18 18 16 15 13 12 9 7 6 4 1 1 2 3 3 4 6 8 9 10 10 12 12 12 13 13 13 13 15 16 16 16 15 15
18 19 22 22 22 20 19 19 18 19 20 17 16 15 14 12 9 6 5 3 2 1 1 2 3 3 5 7 8 8 9 10 11 12 12 13 13 14 15 15 15 16 15
14 17 24 25 24 22 21 20 20 20 20 19 17 14 14 14 12 10 7 6 5 4 3 1 1 2 2 4 6 6 7 8 9 10 11 11 12 13 14 14 14 14 14
21 13 22 27 28 26 23 23 22 21 20 19 19 18 16 14 13 13 12 9 7 6 6 4 3 2 2 2 4 6 6 7 8 9 10 10 11 12 13 13 13 14 13
29 24 22 27 30 30 28 26 24 22 22 21 19 19 18 17 15 13 10 9 8 6 6 6 6 5 4 4 5 6 6 6 7 7 8 9 10 11 11 12 12 13 13
37 30 24 33 31 30 29 28 26 26 23 22 22 21 21 20 18 15 14 12 10 8 8 8 7 6 5 6 7 7 7 7 7 7 8 9 10 10 10 10 11 12 13
34 40 25 29 33 30 28 28 26 25 24 24 22 22 22 22 20 19 19 17 14 12 11 9 9 9 8 8 8 8 8 8 7 7 7 8 9 9 9 9 10 11 12
33 39 27 29 45 28 33 34 23 29 27 24 24 24 25 27 26 24 20 19 19 17 15 12 11 10 9 10 10 9 9 9 8 8 7 7 8 9 8 8 9 10 10
27 27 25 22 25 28 26 28 24 29 26 27 26 25 23 24 30 29 26 23 22 19 18 15 13 12 11 11 11 11 10 10 9 8 8 7 8 8 8 8 8 9 9
28 26 26 28 24 24 26 25 27 25 25 27 25 25 23 23 25 30 28 28 26 24 23 19 17 15 14 14 14 13 12 11 10 9 8 7 7 6 6 6 7 8 8
32 30 29 29 29 28 27 27 25 30 27 25 28 27 26 24 21 24 29 28 27 25 25 22 19 19 17 16 14 16 14 13 11 10 8 7 6 5 4 3 4 5 6
34 34 33 31 29 29 29 27 26 27 27 31 27 29 28 27 26 25 27 22 25 25 28 27 25 22 21 20 18 19 17 16 14 12 10 8 6 5 4 3 1 0 2
37 37 38 34 30 28 28 26 23 29 25 33 35 29 20 16 21 26 28 29 34 32 32 24 24 27 25 24 23 22 21 19 18 16 14 11 9 7 5 4 3 3 3
39 40 36 34 31 29 26 26 23 30 30 34 34 39 42 31 16 18 25 21 29 32 32 28 24 32 30 29 27 25 24 23 21 19 16 14 12 10 7 5 4 3 3
41 42 40 36 35 33 34 33 23 27 27 25 24 25 35 34 16 20 20 19 23 30 33 35 40 34 26 29 30 29 28 27 26 24 21 18 16 13 11 8 6 4 4
43 45 43 40 40 37 32 28 30 25 23 30 21 26 29 26 20 15 24 29 20 24 34 34 37 40 42 38 32 32 31 31 30 29 26 24 20 18 16 13 11 9 7
43 47 44 42 40 39 37 36 35 36 36 34 33 29 30 27 28 26 25 20 31 23 36 33 38 39 39 39 40 39 37 36 35 34 31 29 26 23 21 19 17 14 12
42 44 44 42 41 42 39 38 35 35 34 35 34 30 26 29 23 24 25 11 21 27 34 34 29 42 34 38 40 42 42 40 36 34 37 36 32 29 27 24 21 20 17
37 38 40 41 41 38 36 35 34 33 32 33 30 29 31 31 31 27 25 20 14 19 39 37 36 26 26 40 45 43 46 44 39 43 41 40 38 35 33 30 27 24 22
32 34 33 33 32 35 31 31 28 26 27 27 26 26 30 32 31 30 27 28 25 19 16 26 37 46 37 33 27 42 43 46 45 44 44 42 41 41 37 34 31 28 26
30 31 30 29 31 35 30 30 28 27 27 27 27 27 28 29 29 29 32 35 33 25 17 23 24 29 25 37 34 27 39 48 51 50 45 44 46 45 41 37 35 33 31
29 29 30 30 30 28 29 30 29 28 28 27 28 28 28 28 29 28 29 30 30 32 26 27 28 25 29 29 36 40 36 34 43 49 57 51 48 52 46 40 39 36 36
29 29 29 30 30 31 30 30 29 29 29 27 28 29 29 28 29 29 27 25 27 28 31 28 25 23 24 24 23 29 36 30 29 28 33 47 47 50 41 41 40 34 35
Wind_Direction
204 197 189 188 187 189 186 178 180 181 181 176 181 183 174 171 160 142 111 97 84 80 79 75 74 75 73 72 72 73 75 87 78 76 74 75 73 69 67 69 75 78 78
211 209 198 195 190 185 191 190 187 185 188 185 186 185 198 176 170 168 139 100 102 90 81 81 77 77 79 75 73 74 76 85 81 82 79 77 75 71 68 68 73 80 80
214 214 212 201 197 184 197 196 190 183 190 190 191 192 201 206 186 184 175 137 117 114 93 89 85 80 78 81 79 78 80 82 86 85 83 80 79 77 73 69 73 77 79
211 214 214 211 202 193 199 197 188 189 191 196 195 201 208 208 212 196 205 182 122 135 121 97 86 84 84 80 84 83 84 86 89 87 83 84 82 80 78 75 72 76 82
199 213 211 215 210 204 200 196 193 190 193 194 200 203 208 210 213 214 224 261 299 328 122 120 101 91 91 93 93 93 92 92 93 92 91 88 84 82 81 79 79 79 80
192 208 213 212 210 206 207 203 197 196 195 197 198 202 210 213 216 219 227 243 267 278 277 242 172 142 103 106 113 113 109 105 104 98 94 93 89 84 83 80 78 78 81
211 219 219 214 207 206 211 210 204 200 197 198 203 206 212 218 222 222 229 237 242 252 257 247 225 193 167 152 139 134 125 116 111 107 106 99 94 90 85 82 81 81 76
222 228 234 220 214 205 207 209 208 205 204 203 206 208 211 218 226 226 221 219 223 231 236 237 229 230 202 181 160 148 138 130 119 113 111 104 97 93 88 84 81 80 77
229 225 219 216 216 214 213 214 210 211 209 210 214 215 216 215 224 221 223 226 226 231 228 221 222 215 216 186 171 159 151 145 137 129 119 109 103 96 90 86 81 77 74
216 220 207 207 210 212 215 218 218 216 217 220 216 219 222 226 228 231 228 225 223 223 226 222 216 210 205 197 181 171 162 156 148 135 121 115 109 99 91 86 82 81 77
221 225 237 239 231 245 227 224 223 218 224 226 224 227 229 230 229 229 234 225 222 215 217 218 214 210 202 194 189 181 173 164 157 146 132 125 110 102 94 88 82 77 75
218 220 229 242 240 246 244 239 250 237 220 226 226 226 224 232 230 229 230 232 225 215 214 213 215 206 196 194 190 185 178 171 166 158 144 135 116 105 95 83 77 75 71
221 222 227 236 232 231 228 243 253 249 225 221 220 226 228 230 228 229 230 229 229 220 217 214 211 208 202 197 196 192 187 182 178 173 161 149 128 114 103 89 79 73 71
226 229 227 228 228 233 237 242 251 263 237 234 233 230 231 238 240 229 232 233 226 224 222 219 218 212 208 207 208 204 197 193 191 187 180 169 157 145 130 106 89 79 69
223 225 222 226 229 230 233 230 244 245 247 250 230 214 223 228 226 225 224 223 224 221 234 222 221 223 218 211 208 212 208 202 199 197 192 192 184 178 177 177 189 289 49
222 227 222 226 230 229 227 233 234 227 259 226 234 233 212 217 211 205 216 218 223 222 227 219 234 230 228 224 218 216 213 210 206 205 203 202 199 194 192 201 221 253 279
222 225 227 230 230 227 231 235 233 194 210 235 230 241 246 255 257 203 200 225 230 230 219 219 226 234 236 230 227 224 217 215 211 210 212 212 208 206 203 206 218 232 263
222 224 224 229 230 224 229 224 227 246 220 251 269 232 241 244 261 234 240 254 224 233 232 230 230 220 220 232 240 225 225 220 216 214 216 217 217 217 216 218 225 232 246
222 223 224 225 226 222 226 218 232 236 238 260 265 281 286 269 286 289 276 275 248 230 231 233 234 230 230 231 232 234 231 227 224 219 218 219 220 222 224 225 229 235 241
226 225 227 225 227 228 226 237 241 245 246 256 263 266 264 277 285 299 292 274 277 242 225 232 234 238 236 235 235 239 233 234 230 227 224 222 223 225 228 229 232 237 242
228 227 227 227 228 230 231 235 240 243 246 250 259 253 255 266 262 273 278 287 290 232 225 221 226 230 237 245 244 240 237 234 228 232 230 227 227 227 230 232 233 236 240
230 229 230 229 230 234 234 238 239 243 248 250 254 256 257 260 262 253 258 263 255 281 230 234 244 236 229 232 232 240 244 240 239 231 231 232 231 232 230 233 235 236 239
225 227 230 229 230 239 238 238 238 240 245 250 252 252 254 257 258 256 256 256 254 251 267 267 255 250 253 249 247 237 231 237 239 238 239 240 233 232 231 232 234 238 240
221 226 230 231 230 236 236 240 241 244 246 250 252 254 251 253 254 253 251 248 260 253 248 252 278 273 265 255 245 251 239 239 237 239 233 238 237 239 235 232 235 236 240
225 225 227 231 234 238 241 245 246 247 249 248 250 252 252 251 252 250 247 240 245 252 246 241 249 262 282 279 260 248 245 245 245 246 250 240 248 243 232 240 237 236 239
231 233 234 237 238 240 242 244 246 247 247 246 246 247 248 248 249 249 249 245 240 243 247 247 245 250 261 258 284 252 244 240 239 243 249 241 241 240 239 234 221 231 235